Total_Precipitation_Accumulation
1.75 1.80 1.80 1.70 1.75 1.86 2.01 2.12 2.14 2.05 1.96 1.85 1.54 1.38 1.33 1.32 1.41 1.40 1.52 1.36 0.95 0.76 0.68 0.68 0.68 0.73 0.81 0.95 1.10 1.26 1.40 1.54 1.68 1.87 2.11 2.33 2.53 2.73
2.03 2.12 2.05 1.88 1.92 1.95 2.02 2.17 2.33 2.37 2.15 1.86 1.64 1.46 1.39 1.24 1.30 1.23 1.30 1.19 0.87 0.74 0.65 0.61 0.58 0.59 0.65 0.72 0.81 0.95 1.06 1.24 1.43 1.56 1.70 1.83 1.99 2.13
2.03 2.01 1.95 1.97 2.03 1.92 1.98 2.07 2.21 2.38 2.20 1.95 1.81 1.73 1.68 1.59 1.46 1.21 1.05 0.95 0.83 0.82 0.70 0.61 0.59 0.60 0.60 0.63 0.67 0.75 0.86 1.02 1.19 1.31 1.44 1.61 1.75 1.86
2.04 1.99 1.88 1.95 2.03 1.97 2.00 1.96 2.02 2.27 2.23 2.10 2.03 2.04 1.95 1.76 1.65 1.46 1.16 1.03 1.00 0.99 0.86 0.71 0.62 0.61 0.60 0.60 0.65 0.69 0.76 0.86 1.00 1.11 1.17 1.23 1.39 1.59
2.11 2.03 1.90 1.93 1.91 1.98 2.03 2.01 1.96 2.01 2.15 2.11 2.05 2.14 2.07 1.86 1.73 1.56 1.41 1.46 1.29 1.08 0.93 0.79 0.70 0.65 0.64 0.60 0.64 0.72 0.84 0.86 0.88 0.98 1.09 1.16 1.21 1.28
1.88 1.78 1.77 1.85 1.92 1.93 1.85 1.85 1.87 1.94 2.00 2.02 2.03 2.13 2.16 2.09 1.93 1.78 1.74 1.71 1.55 1.16 1.04 0.91 0.83 0.74 0.67 0.61 0.61 0.73 0.87 0.92 0.96 0.97 1.00 1.07 1.12 1.16
1.70 1.49 1.44 1.64 1.76 1.77 1.63 1.71 1.77 1.81 1.84 1.91 1.97 2.08 2.14 2.26 2.08 1.84 1.79 1.86 1.77 1.58 1.43 1.22 1.08 0.98 0.93 0.86 0.77 0.75 0.78 0.85 0.93 1.05 1.17 1.26 1.30 1.31
1.50 1.41 1.38 1.41 1.37 1.35 1.32 1.33 1.41 1.52 1.69 1.92 2.02 2.04 2.03 2.13 2.22 2.13 2.06 2.02 1.98 1.90 1.94 1.82 1.52 1.43 1.34 1.23 1.10 0.87 0.74 0.78 0.87 0.96 1.18 1.43 1.66 1.73
1.47 1.52 1.31 1.17 1.27 1.25 1.30 1.25 1.20 1.24 1.36 1.61 1.82 1.86 1.96 1.99 2.24 2.27 2.30 2.37 2.34 2.29 2.30 2.30 1.97 1.70 1.48 1.40 1.29 1.00 0.82 0.75 0.80 0.90 1.00 1.21 1.49 1.79
1.45 1.48 1.47 1.40 1.38 1.44 1.46 1.38 1.24 1.20 1.18 1.17 1.37 1.63 1.85 2.08 2.14 2.20 2.30 2.37 2.36 2.22 2.19 2.27 2.13 1.97 1.65 1.36 1.23 1.06 0.88 0.76 0.74 0.80 0.82 0.87 1.01 1.24
1.50 1.48 1.46 1.42 1.44 1.30 1.27 1.29 1.28 1.25 1.09 1.09 1.17 1.37 1.53 1.61 1.82 2.04 2.21 2.16 2.07 1.86 1.69 1.78 1.84 1.86 1.82 1.61 1.27 1.14 0.96 0.81 0.76 0.76 0.75 0.75 0.80 0.87
1.57 1.55 1.43 1.31 1.28 1.15 1.14 1.27 1.26 1.23 1.23 1.17 1.08 1.10 1.17 1.29 1.36 1.41 1.68 1.86 1.77 1.68 1.45 1.36 1.34 1.43 1.56 1.43 1.22 1.15 1.13 1.02 0.86 0.82 0.80 0.78 0.83 0.77
1.60 1.56 1.50 1.36 1.17 1.11 1.05 1.09 1.13 1.12 1.18 1.21 1.17 1.12 1.18 1.28 1.23 1.18 1.31 1.49 1.54 1.39 1.25 1.31 1.24 1.15 1.14 1.12 1.06 0.94 0.97 1.07 1.03 0.92 0.86 0.86 0.91 0.93
1.77 1.73 1.63 1.41 1.17 1.06 0.98 0.95 0.90 0.84 0.89 1.01 1.04 1.00 1.04 1.15 1.22 1.19 1.21 1.26 1.31 1.22 1.18 1.26 1.33 1.25 1.10 0.95 0.88 0.79 0.77 0.85 1.00 1.17 1.26 1.28 1.17 1.12
1.70 1.73 1.46 1.23 1.08 0.93 0.89 0.87 0.78 0.72 0.83 0.90 0.90 0.89 0.88 0.98 1.17 1.29 1.31 1.31 1.26 1.09 0.96 0.99 1.12 1.26 1.25 1.04 0.85 0.77 0.75 0.81 0.93 1.12 1.26 1.38 1.45 1.45
1.45 1.52 1.39 1.21 1.07 0.96 0.90 0.85 0.80 0.81 0.89 0.91 0.92 0.95 0.95 1.01 1.09 1.17 1.26 1.29 1.26 1.05 0.95 0.94 1.01 1.17 1.22 1.06 0.93 0.85 0.83 0.89 0.95 1.15 1.37 1.46 1.50 1.57
1.45 1.47 1.48 1.35 1.21 1.10 1.07 1.10 1.10 1.05 0.98 0.97 1.00 1.01 0.99 0.98 1.03 1.10 1.17 1.20 1.14 0.96 0.83 0.89 0.99 1.14 1.17 1.13 1.05 0.89 0.86 0.84 0.86 1.02 1.25 1.35 1.42 1.51
1.28 1.31 1.42 1.41 1.33 1.25 1.19 1.19 1.17 1.11 1.04 1.04 1.02 1.01 0.98 0.95 0.97 1.02 1.06 1.08 1.05 0.96 0.85 0.81 0.94 1.11 1.17 1.06 0.89 0.82 0.80 0.76 0.81 0.97 1.09 1.11 1.05 1.11
1.09 1.15 1.25 1.30 1.26 1.22 1.17 1.14 1.09 1.10 1.11 1.06 1.03 1.03 1.01 0.96 0.94 0.97 0.99 1.05 1.03 1.01 0.98 0.97 0.97 0.98 0.96 0.83 0.72 0.64 0.73 0.75 0.83 0.90 0.99 0.96 0.88 0.89
0.95 1.02 1.08 1.12 1.13 1.14 1.13 1.12 1.08 1.09 1.08 1.06 1.02 1.01 1.01 0.97 0.97 0.98 0.95 0.97 1.02 1.05 1.06 1.00 0.95 0.90 0.84 0.85 0.83 0.75 0.66 0.81 0.89 0.86 0.84 0.88 0.85 0.79
0.88 0.92 0.93 0.94 0.98 1.02 1.02 1.06 1.06 1.02 1.02 1.05 1.02 0.98 1.01 1.02 1.02 1.01 1.00 1.01 1.02 1.05 1.02 0.89 0.85 0.96 1.09 1.12 0.99 0.86 0.83 0.81 0.93 0.94 0.93 0.96 0.94 0.90
0.83 0.86 0.82 0.81 0.86 0.93 0.98 1.03 1.03 1.04 1.07 1.04 1.01 1.00 0.99 1.00 0.97 0.98 1.01 1.03 1.03 1.03 1.01 1.03 1.08 1.13 1.15 1.06 0.94 0.96 1.05 1.00 0.97 0.98 0.94 0.97 0.94 0.85
0.78 0.74 0.70 0.72 0.78 0.83 0.88 0.91 0.96 1.03 1.02 1.01 1.05 1.02 0.98 0.98 0.96 0.97 0.96 0.98 1.00 1.05 1.12 1.16 1.14 1.09 1.06 1.07 1.02 0.98 0.98 1.04 1.08 1.05 0.97 0.89 0.81 0.73